| time (UTC) | temp C | wind direction | speed KPH | gust KPH | rain 1hr cm | rain 24hr cm | rain mn cm | humidity % | barometer mb |
| 20260505041531 | 12 | 271 | 0.0 | 0.0 | 0.00 | 0.00 | 0.00 | 81 | 1011.5 |
| 20260505041030 | 12 | 271 | 0.0 | 0.0 | 0.00 | 0.00 | 0.00 | 80 | 1011.5 |
| 20260505040023 | 12 | 271 | 0.0 | 0.0 | 0.00 | 0.00 | 0.00 | 79 | 1011.5 |
| 20260505035537 | 13 | 271 | 0.0 | 0.0 | 0.00 | 0.00 | 0.00 | 77 | 1011.4 |
| 20260505035033 | 13 | 271 | 0.0 | 0.0 | 0.00 | 0.00 | 0.00 | 77 | 1011.5 |
| 20260505034026 | 13 | 271 | 0.0 | 0.0 | 0.00 | 0.00 | 0.00 | 76 | 1011.5 |
| 20260505033534 | 13 | 271 | 0.0 | 0.0 | 0.00 | 0.00 | 0.00 | 76 | 1011.6 |
| 20260505033023 | 13 | 271 | 0.0 | 0.0 | 0.00 | 0.00 | 0.00 | 74 | 1011.7 |
| 20260505032523 | 13 | 271 | 0.0 | 0.0 | 0.00 | 0.00 | 0.00 | 73 | 1011.7 |
| 20260505032038 | 13 | 271 | 0.0 | 0.0 | 0.00 | 0.00 | 0.00 | 75 | 1011.7 |
| 20260505031527 | 13 | 271 | 0.0 | 0.0 | 0.00 | 0.00 | 0.00 | 73 | 1011.7 |
| 20260505031032 | 13 | 271 | 0.0 | 0.0 | 0.00 | 0.00 | 0.00 | 73 | 1011.8 |
| 20260505030526 | 13 | 271 | 0.0 | 0.0 | 0.00 | 0.00 | 0.00 | 72 | 1011.8 |
| 20260505030024 | 13 | 271 | 0.0 | 0.0 | 0.00 | 0.00 | 0.00 | 71 | 1011.9 |
| 20260505025530 | 13 | 271 | 0.0 | 0.0 | 0.00 | 0.00 | 0.00 | 71 | 1011.9 |
| 20260505025058 | 13 | 271 | 0.0 | 0.0 | 0.00 | 0.00 | 0.00 | 71 | 1011.9 |
| 20260505024518 | 13 | 271 | 0.0 | 0.0 | 0.00 | 0.00 | 0.00 | 72 | 1012.0 |
| 20260505023530 | 13 | 271 | 0.0 | 0.0 | 0.00 | 0.00 | 0.00 | 72 | 1012.0 |
| 20260505023021 | 13 | 271 | 0.0 | 0.0 | 0.00 | 0.00 | 0.00 | 72 | 1012.1 |
| 20260505022518 | 13 | 286 | 0.0 | 0.0 | 0.00 | 0.00 | 0.00 | 72 | 1012.1 |
| 20260505022037 | 13 | 286 | 1.6 | 0.0 | 0.00 | 0.00 | 0.00 | 71 | 1012.2 |
| 20260505021533 | 13 | 286 | 1.6 | 0.0 | 0.00 | 0.00 | 0.00 | 72 | 1012.3 |
| 20260505021030 | 13 | 286 | 1.6 | 0.0 | 0.00 | 0.00 | 0.00 | 71 | 1012.4 |
| 20260505020523 | 14 | 286 | 1.6 | 0.0 | 0.00 | 0.00 | 0.00 | 72 | 1012.4 |
| 20260505020037 | 14 | 263 | 1.6 | 0.0 | 0.00 | 0.00 | 0.00 | 71 | 1012.5 |
| 20260505015036 | 14 | 298 | 1.6 | 0.0 | 0.00 | 0.00 | 0.00 | 73 | 1012.4 |
| 20260505014025 | 13 | 290 | 1.6 | 0.0 | 0.00 | 0.00 | 0.00 | 76 | 1012.8 |
| 20260505013537 | 13 | 193 | 3.2 | 0.0 | 0.00 | 0.00 | 0.00 | 75 | 1013.0 |
| 20260505012537 | 13 | 273 | 1.6 | 0.0 | 0.00 | 0.00 | 0.00 | 77 | 1013.1 |
| 20260505012025 | 12 | 279 | 0.0 | 0.0 | 0.00 | 0.00 | 0.00 | 78 | 1013.1 |
| 20260505011527 | 12 | 292 | 0.0 | 0.0 | 0.00 | 0.00 | 0.00 | 80 | 1013.1 |
| 20260505011036 | 12 | 294 | 0.0 | 0.0 | 0.00 | 0.00 | 0.00 | 80 | 1013.2 |
| 20260505010527 | 12 | 294 | 0.0 | 0.0 | 0.00 | 0.00 | 0.00 | 80 | 1013.2 |
| 20260505010032 | 12 | 294 | 0.0 | 0.0 | 0.00 | 0.00 | 0.00 | 82 | 1013.2 |
| 20260505004030 | 12 | 294 | 0.0 | 0.0 | 0.00 | 0.00 | 0.00 | 82 | 1013.6 |
| 20260505003520 | 12 | 294 | 0.0 | 0.0 | 0.00 | 0.00 | 0.00 | 83 | 1013.7 |
| 20260505002525 | 11 | 294 | 0.0 | 0.0 | 0.00 | 0.00 | 0.00 | 84 | 1013.8 |
| 20260505002030 | 11 | 294 | 0.0 | 0.0 | 0.00 | 0.00 | 0.00 | 84 | 1013.8 |
| 20260505001521 | 11 | 294 | 0.0 | 0.0 | 0.00 | 0.00 | 0.00 | 83 | 1013.9 |
| 20260505001022 | 11 | 294 | 0.0 | 0.0 | 0.00 | 0.00 | 0.00 | 83 | 1014.0 |
| 20260505000529 | 11 | 294 | 0.0 | 0.0 | 0.00 | 0.00 | 0.00 | 82 | 1014.2 |
| 20260505000038 | 11 | 294 | 0.0 | 0.0 | 0.00 | 0.00 | 0.00 | 82 | 1014.2 |
| 20260504235604 | 11 | 294 | 0.0 | 0.0 | 0.00 | 0.00 | 0.00 | 82 | 1014.2 |
| 20260504235034 | 11 | 294 | 0.0 | 0.0 | 0.00 | 0.00 | 0.00 | 82 | 1014.3 |
| 20260504234520 | 11 | 294 | 0.0 | 0.0 | 0.00 | 0.00 | 0.00 | 82 | 1014.4 |
| 20260504234026 | 11 | 294 | 0.0 | 0.0 | 0.00 | 0.00 | 0.00 | 81 | 1014.4 |
| 20260504233527 | 11 | 294 | 0.0 | 0.0 | 0.00 | 0.00 | 0.00 | 81 | 1014.5 |
| 20260504233022 | 11 | 294 | 0.0 | 0.0 | 0.00 | 0.00 | 0.00 | 81 | 1014.5 |
| 20260504232526 | 11 | 294 | 0.0 | 0.0 | 0.00 | 0.00 | 0.00 | 81 | 1014.6 |
| 20260504230021 | 12 | 294 | 0.0 | 0.0 | 0.00 | 0.00 | 0.00 | 80 | 1014.8 |
| 20260504225020 | 12 | 294 | 0.0 | 0.0 | 0.00 | 0.00 | 0.00 | 79 | 1014.8 |
| 20260504224036 | 12 | 294 | 0.0 | 0.0 | 0.00 | 0.00 | 0.00 | 79 | 1014.9 |
| 20260504223525 | 12 | 294 | 0.0 | 0.0 | 0.00 | 0.00 | 0.00 | 78 | 1015.0 |
| 20260504223028 | 12 | 294 | 0.0 | 0.0 | 0.00 | 0.00 | 0.00 | 77 | 1015.0 |
| 20260504222534 | 12 | 294 | 0.0 | 0.0 | 0.00 | 0.00 | 0.00 | 77 | 1015.1 |
| 20260504222026 | 12 | 294 | 0.0 | 0.0 | 0.00 | 0.00 | 0.00 | 77 | 1015.1 |
| 20260504221533 | 12 | 294 | 0.0 | 0.0 | 0.00 | 0.00 | 0.00 | 76 | 1015.1 |
| 20260504221020 | 12 | 294 | 0.0 | 0.0 | 0.00 | 0.00 | 0.00 | 75 | 1015.2 |
| 20260504220523 | 12 | 294 | 0.0 | 0.0 | 0.00 | 0.00 | 0.00 | 74 | 1015.2 |
| 20260504220052 | 12 | 294 | 0.0 | 0.0 | 0.00 | 0.00 | 0.00 | 73 | 1015.2 |
| 20260504215532 | 12 | 294 | 0.0 | 0.0 | 0.00 | 0.00 | 0.00 | 72 | 1015.3 |
| 20260504215027 | 13 | 294 | 0.0 | 0.0 | 0.00 | 0.00 | 0.00 | 72 | 1015.3 |
| 20260504214533 | 13 | 294 | 0.0 | 0.0 | 0.00 | 0.00 | 0.00 | 70 | 1015.4 |
| 20260504214021 | 13 | 294 | 0.0 | 0.0 | 0.00 | 0.00 | 0.00 | 69 | 1015.5 |
| 20260504213534 | 13 | 294 | 0.0 | 0.0 | 0.00 | 0.00 | 0.00 | 69 | 1015.5 |
| 20260504213026 | 13 | 294 | 0.0 | 0.0 | 0.00 | 0.00 | 0.00 | 69 | 1015.6 |
| 20260504212533 | 13 | 294 | 0.0 | 0.0 | 0.00 | 0.00 | 0.00 | 67 | 1015.6 |
| 20260504212019 | 13 | 294 | 0.0 | 0.0 | 0.00 | 0.00 | 0.00 | 67 | 1015.6 |
| 20260504211525 | 13 | 294 | 0.0 | 0.0 | 0.00 | 0.00 | 0.00 | 67 | 1015.6 |
| 20260504211026 | 13 | 294 | 0.0 | 0.0 | 0.00 | 0.00 | 0.00 | 66 | 1015.6 |
| 20260504210529 | 14 | 294 | 0.0 | 0.0 | 0.00 | 0.00 | 0.00 | 65 | 1015.6 |
| 20260504210030 | 14 | 294 | 0.0 | 0.0 | 0.00 | 0.00 | 0.00 | 65 | 1015.7 |
| 20260504205533 | 14 | 294 | 0.0 | 0.0 | 0.00 | 0.00 | 0.00 | 65 | 1015.7 |
| 20260504205023 | 14 | 294 | 0.0 | 0.0 | 0.00 | 0.00 | 0.00 | 65 | 1015.7 |
| 20260504204528 | 14 | 295 | 0.0 | 0.0 | 0.00 | 0.00 | 0.00 | 67 | 1015.8 |
| 20260504204021 | 14 | 295 | 0.0 | 0.0 | 0.00 | 0.00 | 0.00 | 67 | 1015.8 |
| 20260504203522 | 14 | 295 | 0.0 | 0.0 | 0.00 | 0.00 | 0.00 | 67 | 1015.7 |
| 20260504203033 | 14 | 295 | 0.0 | 0.0 | 0.00 | 0.00 | 0.00 | 68 | 1015.8 |
| 20260504202543 | 13 | 295 | 0.0 | 0.0 | 0.00 | 0.00 | 0.00 | 69 | 1015.7 |
| 20260504202029 | 13 | 295 | 0.0 | 0.0 | 0.00 | 0.00 | 0.00 | 70 | 1015.7 |
| 20260504201537 | 13 | 295 | 0.0 | 0.0 | 0.00 | 0.00 | 0.00 | 69 | 1015.7 |
| 20260504201107 | 13 | 295 | 0.0 | 0.0 | 0.00 | 0.00 | 0.00 | 69 | 1015.7 |
| 20260504200031 | 14 | 295 | 0.0 | 0.0 | 0.00 | 0.00 | 0.00 | 69 | 1015.6 |
| 20260504195531 | 14 | 295 | 0.0 | 0.0 | 0.00 | 0.00 | 0.00 | 69 | 1015.5 |
| 20260504195030 | 14 | 295 | 0.0 | 0.0 | 0.00 | 0.00 | 0.00 | 70 | 1015.6 |
| 20260504194527 | 14 | 295 | 0.0 | 0.0 | 0.00 | 0.00 | 0.00 | 71 | 1015.5 |
| 20260504194028 | 14 | 295 | 0.0 | 0.0 | 0.00 | 0.00 | 0.00 | 70 | 1015.5 |
| 20260504193020 | 15 | 295 | 0.0 | 0.0 | 0.00 | 0.00 | 0.00 | 67 | 1015.4 |
| 20260504192519 | 15 | 295 | 0.0 | 0.0 | 0.00 | 0.00 | 0.00 | 66 | 1015.3 |
| 20260504192018 | 15 | 295 | 0.0 | 0.0 | 0.00 | 0.00 | 0.00 | 69 | 1015.2 |
| 20260504191533 | 15 | 295 | 0.0 | 0.0 | 0.00 | 0.00 | 0.00 | 67 | 1015.2 |
| 20260504191025 | 15 | 295 | 0.0 | 0.0 | 0.00 | 0.00 | 0.00 | 66 | 1015.2 |
| 20260504190528 | 15 | 295 | 0.0 | 0.0 | 0.00 | 0.00 | 0.00 | 64 | 1015.1 |
| 20260504185534 | 15 | 295 | 0.0 | 0.0 | 0.00 | 0.00 | 0.00 | 63 | 1015.1 |
| 20260504185024 | 16 | 295 | 0.0 | 0.0 | 0.00 | 0.00 | 0.00 | 62 | 1015.0 |
| 20260504184539 | 16 | 295 | 0.0 | 0.0 | 0.00 | 0.00 | 0.00 | 60 | 1015.0 |
| 20260504184022 | 16 | 295 | 0.0 | 0.0 | 0.00 | 0.00 | 0.00 | 61 | 1015.0 |
| 20260504183526 | 16 | 295 | 0.0 | 0.0 | 0.00 | 0.00 | 0.00 | 61 | 1014.9 |
| 20260504183027 | 17 | 295 | 0.0 | 0.0 | 0.00 | 0.00 | 0.00 | 58 | 1014.9 |
| 20260504182523 | 17 | 295 | 0.0 | 0.0 | 0.00 | 0.00 | 0.00 | 56 | 1014.9 |
| 20260504182036 | 17 | 295 | 0.0 | 0.0 | 0.00 | 0.00 | 0.00 | 55 | 1014.9 |
| 20260504181032 | 18 | 295 | 0.0 | 0.0 | 0.00 | 0.00 | 0.00 | 53 | 1014.9 |
| 20260504180539 | 18 | 295 | 0.0 | 0.0 | 0.00 | 0.00 | 0.00 | 52 | 1014.9 |
| 20260504180034 | 18 | 295 | 0.0 | 0.0 | 0.00 | 0.00 | 0.00 | 53 | 1014.9 |
| 20260504175524 | 18 | 295 | 0.0 | 0.0 | 0.00 | 0.00 | 0.00 | 50 | 1014.9 |
| 20260504175032 | 19 | 295 | 0.0 | 0.0 | 0.00 | 0.00 | 0.00 | 50 | 1014.9 |
| 20260504174522 | 19 | 295 | 0.0 | 0.0 | 0.00 | 0.00 | 0.00 | 50 | 1015.0 |
| 20260504174027 | 19 | 298 | 1.6 | 0.0 | 0.00 | 0.00 | 0.00 | 49 | 1014.9 |
| 20260504173026 | 19 | 274 | 0.0 | 0.0 | 0.00 | 0.00 | 0.00 | 49 | 1014.8 |
| 20260504172519 | 19 | 273 | 0.0 | 0.0 | 0.00 | 0.00 | 0.00 | 50 | 1014.9 |
| 20260504172026 | 19 | 273 | 1.6 | 0.0 | 0.00 | 0.00 | 0.00 | 49 | 1014.9 |
| 20260504171534 | 20 | 278 | 1.6 | 0.0 | 0.00 | 0.00 | 0.00 | 49 | 1015.0 |
| 20260504170526 | 20 | 279 | 0.0 | 0.0 | 0.00 | 0.00 | 0.00 | 52 | 1015.0 |
| 20260504151027 | 21 | 297 | 1.6 | 0.0 | 0.00 | 0.00 | 0.00 | 46 | 1015.4 |
| 20260504141026 | 21 | 307 | 3.2 | 0.0 | 0.00 | 0.00 | 0.00 | 42 | 1015.8 |
| 20260504140535 | 21 | 285 | 1.6 | 0.0 | 0.00 | 0.00 | 0.00 | 42 | 1015.9 |
| 20260504130524 | 20 | 277 | 3.2 | 0.0 | 0.00 | 0.00 | 0.00 | 45 | 1016.5 |
| 20260504110536 | 20 | 266 | 4.8 | 0.0 | 0.00 | 0.00 | 0.00 | 43 | 1017.0 |
| 20260504100527 | 20 | 273 | 3.2 | 0.0 | 0.00 | 0.00 | 0.00 | 43 | 1017.5 |
| 20260504081033 | 18 | 292 | 1.6 | 0.0 | 0.00 | 0.00 | 0.00 | 49 | 1017.4 |
| 20260504080526 | 18 | 322 | 1.6 | 0.0 | 0.00 | 0.00 | 0.00 | 49 | 1017.4 |
| 20260504050530 | 10 | 290 | 0.0 | 0.0 | 0.00 | 0.00 | 0.00 | 86 | 1016.4 |